Flag for Germany Weather past 2 weeks in Rüsselsheim, Hesse, Germany

Now
74 °F

Scattered clouds.


Feels Like: 77 °F
Forecast: 58 / 72 °F
Wind: 10 mph from Southwest

Location: Wiesbaden Airport

Current Time: Aug 29, 2014 at 4:40:12 PM

Latest Report: Aug 29, 2014 at 3:58 PM


Visibility: N/A

Pressure: 30.01 "Hg

Humidity: 53%

Dew point: 56 °F

Location of RüsselsheimLocation

Historic Weather in Rüsselsheim — Graph

°F

Rüsselsheim temperature yesterday

Maximum temperature yesterday: 73 °F (at 2:59 PM)
Minimum temperature yesterday: 52 °F (at 4:58 AM)
Average temperature yesterday: 63 °F

Past Weeks' High & Low Weather Summary

 TemperatureHumidityPressure
High74 °F (Aug 29, 2:58 PM)100% (Aug 15, 12:58 AM)30.14 "Hg (Aug 15, 12:58 AM)
Low45 °F (Aug 22, 6:58 AM)43% (Aug 21, 6:58 PM)29.66 "Hg (Aug 26, 8:04 AM)
Average59 °F78%29.96 "Hg
* Reported Aug 14 2:59 PM — Aug 29 2:58 PM, Rüsselsheim, Weather by CustomWeather, © 2014

Note: Actual official high and low records may vary slightly from our data, if they occured in-between our weather recording intervals... More about our weather records

Advertising

Rüsselsheim weather history for previous 24 hours

 ConditionsComfort  
Time TempWeatherWind HumidityBarometerVisibility
2:58 PM
Aug 29
74 °FPassing clouds.9 mph54%30.01 "HgN/A
1:04 PM72 °FPartly sunny.6 mph61%30.04 "HgN/A
12:58 PM72 °FScattered clouds.7 mph61%30.03 "HgN/A
11:58 AM69 °FPassing clouds.5 mph71%30.03 "HgN/A
11:04 AM68 °FPartly sunny.6 mph73%30.04 "HgN/A
10:58 AM68 °FBroken clouds.3 mph78%30.03 "HgN/A
9:58 AM65 °FBroken clouds.7 mph81%30.03 "HgN/A
8:58 AM64 °FPartly sunny.5 mph83%30.01 "HgN/A
7:58 AM63 °FSunny.5 mph85%29.99 "HgN/A
6:58 AM61 °FPartly cloudy.6 mph97%29.99 "HgN/A
5:58 AM61 °FOvercast.2 mph94%29.98 "HgN/A
4:58 AM59 °FPassing clouds.3 mph99%29.98 "HgN/A
3:58 AM59 °FPassing clouds.No wind100%29.98 "HgN/A
2:58 AM62 °FOvercast.No wind91%29.98 "HgN/A
1:58 AM61 °FPassing clouds.3 mph92%29.98 "HgN/A
12:58 AM63 °FPartly cloudy.3 mph87%29.99 "HgN/A
11:58 PM
Aug 28
64 °FOvercast.2 mph83%29.99 "HgN/A
10:58 PM65 °FPassing clouds.1 mph81%30.01 "HgN/A
9:58 PM66 °FPassing clouds.No wind78%30.01 "HgN/A
8:58 PM69 °FOvercast.3 mph73%30.00 "HgN/A
7:58 PM71 °FCloudy.3 mph67%30.00 "HgN/A
6:58 PM72 °FOvercast.7 mph65%30.00 "HgN/A
5:58 PM72 °FMostly cloudy.7 mph68%30.00 "HgN/A
4:58 PM73 °FOvercast.8 mph61%30.01 "HgN/A
Weather by CustomWeather, © 2014

See weather overviewHow to use our weather pages